Dushanbe, Tajikistan

10:03 PM +05 on October 23, 2017 (GMT +0500)
Dushanbe

Weather History for UTDD - August, 2017

Change the Weather History Date:

Sunday, August 13, 2017

  Actual Average Record
Temperature  
Mean Temperature 74 °F -  
Max Temperature 90 °F - - ()
Min Temperature 57 °F - - ()
Cooling Degree Days 8    
Growing Degree Days 24 (Base 50)    
Moisture  
Dew Point 44 °F    
Average Humidity 33    
Maximum Humidity 53    
Minimum Humidity 16    
Precipitation  
Precipitation 0.00 in 0.00 in - ()
Sea Level Pressure  
Sea Level Pressure 29.78 in    
Wind  
Wind Speed 5 mph ()    
Max Wind Speed 16 mph    
Max Gust Speed -    
Visibility 5.9 miles    
Events      
T = Trace of Precipitation, MM = Missing Value Source: Averaged Metar Reports

Daily Weather History Graph

Daily Weather History Graph

Search for Another Location

Airport or City:

Trip Planner

Search our weather history database for the weather conditions in past years. The results will help you decide how hot, cold, wet, or windy it might be!

Date:

Astronomy

Aug. 13, 2017 Rise Set
Actual Time 5:37 AM +05 7:21 PM +05
Civil Twilight 5:08 AM +05 7:50 PM +05
Nautical Twilight 4:34 AM +05 8:24 PM +05
Astronomical Twilight 3:57 AM +05 9:01 PM +05
Moon 10:43 PM +05 (8/13) 11:04 AM +05 (8/13)
Length of Visible Light 14h 41m
Length of Day
13h 44m
Waning Gibbous, 69% of the Moon is Illuminated
Aug 13
Waning Gibbous
Aug 15
Last Quarter
Aug 21
New
Aug 29
First Quarter
Sep 6
Full

Hourly Weather History & Observations

Time (+05) Temp. Dew Point Humidity Pressure Visibility Wind Dir Wind Speed Gust Speed Precip Events Conditions
12:00 AM 68.0 °F 44.6 °F 43% 29.83 in 4.3 mi East 6.7 mph - N/A   Unknown
12:30 AM 69.8 °F 42.8 °F 38% 29.83 in 6.2 mi Variable 2.2 mph - N/A   Unknown
1:00 AM 68.0 °F 44.6 °F 43% 29.83 in 5.0 mi Variable 2.2 mph - N/A   Unknown
1:30 AM 66.2 °F 46.4 °F 49% 29.83 in 6.2 mi East 6.7 mph - N/A   Unknown
2:00 AM 64 °F 46 °F 41% 29.60 in - Calm Calm - -  
2:00 AM 66.2 °F 44.6 °F 46% 29.83 in 6.2 mi ESE 2.2 mph - N/A   Unknown
2:30 AM 66.2 °F 46.4 °F 49% 29.83 in 6.2 mi ESE 4.5 mph - N/A   Unknown
3:00 AM 64.4 °F 46.4 °F 52% 29.83 in 6.2 mi East 4.5 mph - N/A   Unknown
3:30 AM 66.2 °F 44.6 °F 46% 29.83 in 6.2 mi ESE 4.5 mph - N/A   Unknown
4:00 AM 64.4 °F 44.6 °F 49% 29.83 in 6.2 mi East 4.5 mph - N/A   Unknown
4:30 AM 64.4 °F 44.6 °F 49% 29.83 in 6.2 mi East 4.5 mph - N/A   Unknown
5:00 AM 59 °F 46 °F 53% 29.66 in 6 mi Calm Calm - -  
5:00 AM 66.2 °F 41.0 °F 40% 29.83 in 6.2 mi East 4.5 mph - N/A   Unknown
5:30 AM 66.2 °F 42.8 °F 43% 29.83 in 6.2 mi NE 4.5 mph - N/A   Unknown
6:00 AM 64.4 °F 44.6 °F 49% 29.83 in 6.2 mi Calm Calm - N/A   Unknown
6:30 AM 64.4 °F 44.6 °F 49% 29.83 in 4.3 mi Calm Calm - N/A   Unknown
7:00 AM 66.2 °F 48.2 °F 52% 29.83 in 3.1 mi SE 2.2 mph - N/A   Smoke
7:30 AM 69.8 °F 48.2 °F 46% 29.83 in 4.3 mi Variable 2.2 mph - N/A   Unknown
8:00 AM 73 °F 51 °F 35% 29.59 in 31 mi Calm Calm - -  
8:00 AM 71.6 °F 46.4 °F 41% 29.83 in 4.3 mi Variable 2.2 mph - N/A   Unknown
8:30 AM 75.2 °F 44.6 °F 34% 29.83 in 6.2 mi Variable 4.5 mph - N/A   Unknown
9:00 AM 77.0 °F 48.2 °F 36% 29.83 in 6.2 mi Variable 2.2 mph - N/A   Unknown
9:30 AM 78.8 °F 42.8 °F 28% 29.83 in 6.2 mi Variable 4.5 mph - N/A   Unknown
10:00 AM 80.6 °F 44.6 °F 28% 29.83 in 6.2 mi Variable 4.5 mph - N/A   Unknown
10:30 AM 82.4 °F 42.8 °F 25% 29.83 in 6.2 mi WSW 6.7 mph - N/A   Unknown
11:00 AM 85 °F 56 °F 27% 29.52 in 31 mi Calm Calm - -  
11:00 AM 82.4 °F 42.8 °F 25% 29.83 in 6.2 mi WSW 6.7 mph - N/A   Unknown
11:30 AM 84.2 °F 42.8 °F 23% 29.83 in 6.2 mi Variable 4.5 mph - N/A   Unknown
12:00 PM 84.2 °F 42.8 °F 23% 29.83 in 6.2 mi NW 6.7 mph - N/A   Partly Cloudy
12:30 PM 86.0 °F 44.6 °F 23% 29.83 in 6.2 mi West 11.2 mph - N/A   Partly Cloudy
1:00 PM 87.8 °F 42.8 °F 21% 29.80 in 6.2 mi Variable 6.7 mph - N/A   Partly Cloudy
1:30 PM 87.8 °F 37.4 °F 17% 29.80 in 6.2 mi WSW 6.7 mph - N/A   Partly Cloudy
2:00 PM 88 °F 49 °F 16% 29.46 in 31 mi SSW 6.7 mph - -  
2:00 PM 87.8 °F 41.0 °F 19% 29.80 in 6.2 mi Variable 4.5 mph - N/A   Partly Cloudy
2:30 PM 87.8 °F 41.0 °F 19% 29.77 in 6.2 mi SW 6.7 mph - N/A   Partly Cloudy
3:00 PM 87.8 °F 42.8 °F 21% 29.77 in 6.2 mi West 8.9 mph - N/A   Partly Cloudy
3:30 PM 87.8 °F 44.6 °F 22% 29.77 in 6.2 mi West 13.4 mph - N/A   Unknown
4:00 PM 86.0 °F 41.0 °F 20% 29.77 in 6.2 mi West 13.4 mph - N/A   Unknown
4:30 PM 87.8 °F 41.0 °F 19% 29.77 in 6.2 mi West 15.7 mph - N/A   Unknown
5:00 PM 87 °F 47 °F 16% 29.44 in 31 mi SW 6.7 mph - -  
5:00 PM 86.0 °F 42.8 °F 22% 29.77 in 6.2 mi West 15.7 mph - N/A   Unknown
5:30 PM 84.2 °F 42.8 °F 23% 29.77 in 6.2 mi WNW 13.4 mph - N/A   Unknown
6:00 PM 84.2 °F 42.8 °F 23% 29.77 in 6.2 mi West 13.4 mph - N/A   Unknown
6:30 PM 80.6 °F 42.8 °F 26% 29.80 in 6.2 mi WNW 8.9 mph - N/A   Unknown
7:00 PM 80.6 °F 39.2 °F 23% 29.80 in 6.2 mi WNW 11.2 mph - N/A   Unknown
7:30 PM 78.8 °F 41.0 °F 26% 29.80 in 6.2 mi WNW 8.9 mph - N/A   Unknown
8:00 PM 75 °F 43 °F 21% 29.55 in 6 mi SW 6.7 mph - -  
8:00 PM 77.0 °F 37.4 °F 24% 29.80 in 6.2 mi Variable 4.5 mph - N/A   Unknown
8:30 PM 75.2 °F 41.0 °F 29% 29.83 in 6.2 mi Variable 4.5 mph - N/A   Unknown
9:00 PM 77.0 °F 39.2 °F 26% 29.83 in 6.2 mi WSW 2.2 mph - N/A   Unknown
9:30 PM 75.2 °F 39.2 °F 27% 29.86 in 6.2 mi West 4.5 mph - N/A   Unknown
10:00 PM 75.2 °F 41.0 °F 29% 29.86 in 6.2 mi NW 6.7 mph - N/A   Unknown
10:30 PM 73.4 °F 44.6 °F 36% 29.86 in 6.2 mi Variable 4.5 mph - N/A   Unknown
11:00 PM 67 °F 46 °F 35% 29.64 in - Calm Calm - -  
11:00 PM 68.0 °F 46.4 °F 46% 29.86 in 5.0 mi Variable 4.5 mph - N/A   Unknown
11:30 PM 69.8 °F 44.6 °F 40% 29.89 in 5.0 mi ENE 2.2 mph - N/A   Unknown